Regional Weather Roundup
Issued by NWS

Home | Current Version | Previous Version | Text Only | Print | Product List | Glossary Off
Versions: 1 2 3 4 5 6 7 8 9 10 11 12 13 14 15 16 17 18 19 20 21 22 23 24 25 26 27 28 29 30 31 32 33 34 35 36 37 38 39 40 41 42 43 44 45 46 47 48 49 50

905
ASUS45 KABQ 242201
RWRNM
NEW MEXICO REGIONAL WEATHER ROUNDUP
NATIONAL WEATHER SERVICE ALBUQUERQUE NM
300 PM MST FRI FEB 24 2017

NOTE: "FAIR" MEANS FEW OR NO CLOUDS BELOW 12,000 FEET AGL WITH NO
       SIGNIFICANT WEATHER OR OBSTRUCTIONS TO VISION.

      THIS PRODUCT IS RELEASED AS TWO VERSIONS.  ONE VERSION NEAR
      THE TOP OF THE HOUR CONTAINING PRELIMINARY DATA FROM ALBUQUERQUE
      AND OTHER STATIONS.  A FINAL VERSION WITH ADDITIONAL DATA IS
      ISSUED ABOUT 10 MINUTES AFTER THE HOUR.

NMZ501-503-504-510>518-242300-
NORTHWEST PLATEAU/NORTHCENTRAL MOUNTAINS

CITY           SKY/WX    TMP DP  RH WIND       PRES   REMARKS
FARMINGTON     FAIR      39   0  19 W22G37    29.93S WCI  29
LOS ALAMOS     FAIR      35  -4  18 W18G35    29.91R WCI  24
SANTA FE       FAIR      42  -6  13 W24G33    29.89F
TAOS           PTSUNNY   36   1  23 W16G23    29.89R WCI  26
ANGEL FIRE     CLOUDY    25   2  36 W15G29    29.85R WCI  13

$$
NMZ402-403-502-505>509-242300-
WESTCENTRAL MOUNTAINS/SOUTHWEST MOUNTAINS

CITY           SKY/WX    TMP DP  RH WIND       PRES   REMARKS
GALLUP         FAIR      40   0  18 SW23G35   29.96F WCI  30
GRANTS         FAIR      41  -3  16 W24G38    29.96S
SILVER CITY    FAIR      50   6  16 W32G38    30.01F

$$
NMZ407-409-411-412-242300-
SOUTHERN DESERTS

CITY           SKY/WX    TMP DP  RH WIND       PRES   REMARKS
DEMING         FAIR      56   6  13 W29G37    30.01S
LAS CRUCES     FAIR      56   6  13 W28G38    29.98S
HOLLOMAN AFB   FAIR      58   4  11 SW7       29.96F
ALAMOGORDO     FAIR      57   5  12 SE9       29.95S
T OR C         FAIR      57   3  11 VRB5      29.89F

$$
NMZ519>523-242300-
CENTRAL VALLEYS/CENTRAL HIGHLANDS

CITY           SKY/WX    TMP DP  RH WIND       PRES   REMARKS
ALBUQUERQUE    FAIR      47  -4  12 W23G33    29.92F
DOUBLE EAGLE   MOSUNNY   46   1  15 W21G32    29.93S
MORIARTY ARPT  FAIR      46   0  14 W18G28    29.92S
CLINES CORNERS FAIR      39  -2  17 W30G44    29.90R WCI  27
BELEN          FAIR      49  -1  12 W29G36    29.95S
SOCORRO        FAIR      56   4  12 N13G21    29.92S

$$
NMZ524>526-539-540-242300-
SOUTHCENTRAL MOUNTAINS

CITY           SKY/WX    TMP DP  RH WIND       PRES   REMARKS
RUIDOSO        NOT AVBL

$$
NMZ527>531-242300-
NORTHEAST HIGHLANDS/NORTHEAST PLAINS

CITY           SKY/WX    TMP DP  RH WIND       PRES   REMARKS
LAS VEGAS      FAIR      39  -6  14 W28G39    29.85R WCI  28
RATON          CLOUDY    38   1  21 VRB3      29.83R
CLAYTON        CLOUDY    37  17  44 CALM      29.92R

$$
NMZ532>537-242300-
EASTCENTRAL PLAINS

CITY           SKY/WX    TMP DP  RH WIND       PRES   REMARKS
TUCUMCARI      PTSUNNY   53  11  18 NE8       29.85S
CANNON AFB     SUNNY     54  -1  10 W30G37    29.87F
CLOVIS AIRPORT FAIR      54   9  16 W28G33    29.89R

$$
NMZ028-029-538-242300-
SOUTHEAST PLAINS

CITY           SKY/WX    TMP DP  RH WIND       PRES   REMARKS
ROSWELL        FAIR      63   6  10 N5        29.90
ARTESIA        FAIR      63   9  12 N9        29.86S
CARLSBAD       FAIR      66  -7   5 W26G35    29.86F
HOBBS          SUNNY     63   3   9 W15G21    29.88F


$$




USA.gov is the U.S. government's official web portal to all federal, state and local government web resources and services.